Location: Trebic
(49.2170°N, 15.8830°E)
Time: 23:17:43
(UTC+01:00)

Transit 4A - Pass Details

Date: 30 October 2020
Orbit: 862 x 982 km, 66.8° (Epoch: 28 November)

Event Time Altitude Azimuth Distance (km) Brightness Sun altitude
Rises 18:26:05 0° 292° (WNW) 3,666 12.3 -18.1°
Reaches altitude 10° 18:29:44 10° 313° (NW) 2,733 11.0 -18.7°
Maximum altitude 18:33:43 17° 351° (N) 2,287 10.0 -19.3°
Drops below altitude 10° 18:37:42 10° 30° (NNE) 2,745 10.1 -20.0°
Enters shadow 18:37:58 - 32° (NNE) 2,804 10.1 -20.0°
